Temperature
7 7 7 8 9 10 11 12 12 13 14 13 13 14 15 15 16 16 17 18 17 17 17 17 17 17 16 16 16 16 15 15 15 15 15 15 15 14 14 14 14 14 14 14
7 7 8 10 10 10 11 11 12 13 13 13 13 13 15 16 16 16 17 18 18 18 18 17 17 17 17 16 16 16 16 15 15 15 15 15 15 15 15 15 15 14 14 14
7 9 10 9 9 10 10 11 12 12 12 13 13 13 14 16 16 17 17 18 18 18 17 17 17 17 17 16 16 16 16 16 15 15 15 15 15 14 14 15 15 15 15 14
8 9 9 9 9 10 10 12 13 12 11 11 13 12 14 15 15 16 17 17 18 18 18 17 17 17 16 16 16 16 16 16 16 15 15 15 15 15 15 15 15 15 15 14
7 8 8 8 10 11 11 13 13 12 12 12 13 12 14 15 15 16 16 17 17 17 17 17 17 16 16 16 16 16 16 16 16 16 15 15 15 14 14 14 14 14 14 14
8 8 9 9 10 11 11 12 12 12 12 11 12 12 13 15 16 16 17 17 17 17 17 17 16 16 16 16 16 16 16 16 16 15 15 15 14 14 14 14 14 14 14 14
7 8 9 9 9 10 11 10 9 9 9 10 13 13 14 16 16 16 16 17 17 17 16 16 16 16 15 15 15 15 15 15 15 15 15 14 14 14 14 14 14 13 13 13
7 7 8 9 10 10 10 10 10 9 9 10 13 12 14 16 15 16 16 16 16 16 16 15 15 15 15 15 15 15 15 15 14 14 14 14 14 14 14 13 13 13 12 12
8 7 9 10 10 11 10 10 11 11 12 11 11 13 15 15 15 15 15 15 15 15 15 15 14 14 14 14 14 14 14 14 14 13 14 14 13 13 13 13 12 12 12 11
9 8 9 9 10 10 11 11 10 9 10 11 12 12 13 13 14 14 14 14 14 14 14 13 13 13 13 13 13 12 12 12 12 12 12 12 13 13 12 12 12 11 11 10
10 8 8 9 9 10 10 10 11 10 10 10 11 12 14 13 13 13 13 14 14 13 13 12 12 12 11 11 11 11 10 11 11 11 12 12 12 12 11 11 11 10 10 9
10 9 8 8 9 10 10 11 11 9 9 11 10 11 14 13 13 13 13 13 13 13 12 12 11 11 10 10 10 9 9 9 10 11 11 11 11 11 11 10 10 9 9 8
10 9 7 7 8 9 9 10 11 10 10 9 9 11 13 13 13 13 13 13 13 12 12 11 11 10 9 9 8 8 8 9 9 10 10 10 10 10 9 9 8 8 7 7
10 9 8 8 9 8 9 10 10 9 8 9 10 11 12 13 13 13 13 12 12 12 11 11 10 10 9 8 8 8 8 8 9 9 9 10 9 9 8 8 7 7 6 6
9 8 8 9 10 9 9 10 10 9 9 9 10 11 12 12 12 12 12 12 11 11 11 11 10 10 9 8 8 8 8 8 9 9 9 9 9 8 8 7 6 6 5 4
9 8 8 8 9 9 9 10 10 10 10 10 10 10 11 12 12 11 11 11 11 10 10 10 10 10 9 8 8 8 8 9 9 9 9 9 8 7 7 6 5 5 4 3
8 8 7 7 9 8 7 9 10 10 10 10 10 10 10 10 10 10 10 10 9 9 9 9 9 9 9 9 9 8 9 9 9 9 8 8 8 7 6 5 4 3 3 2
8 8 6 7 7 6 9 9 10 10 10 10 10 9 9 9 9 9 9 9 8 8 8 9 9 9 9 9 9 8 8 9 9 8 8 8 7 6 5 4 3 2 2 1
8 8 7 7 7 8 9 9 9 9 8 8 8 8 8 8 9 9 8 8 7 7 8 8 8 9 9 9 8 8 8 8 8 8 8 8 7 6 4 4 3 2 1 1
8 8 7 7 7 7 7 8 9 9 7 7 7 7 7 7 6 7 7 7 7 7 7 7 8 8 8 8 8 8 8 8 8 8 8 7 6 5 4 3 2 2 1 1
7 7 6 6 6 7 7 8 8 7 5 6 6 5 5 5 5 5 5 5 6 6 7 7 7 7 7 7 7 7 7 7 7 7 7 6 5 4 3 3 2 1 1 0
6 6 6 6 6 5 6 7 5 4 5 4 4 4 4 4 4 4 4 4 5 5 6 6 6 6 6 7 7 7 7 7 6 6 6 5 5 4 3 2 2 1 1 0
5 5 5 5 5 5 5 4 4 3 3 3 3 3 3 3 3 3 3 3 4 4 5 5 6 6 6 6 6 6 6 6 5 5 5 4 4 3 3 2 2 1 1 1
4 4 5 5 5 5 4 3 3 2 2 2 2 2 2 2 2 2 2 2 3 3 4 4 5 5 5 5 5 5 5 5 5 5 4 4 4 3 3 2 2 1 1 1
3 4 4 4 4 4 4 3 2 1 1 1 1 1 1 1 1 1 1 2 2 2 3 3 4 4 5 5 5 5 4 4 4 4 4 3 3 3 2 2 2 1 1 1
2 2 2 2 2 1 2 1 1 0 0 -0 -0 -0 -0 -0 0 0 0 1 1 1 2 2 3 4 4 4 4 4 4 4 4 3 3 3 3 3 2 2 2 1 1 1
Wind_Speed
4 4 6 8 9 7 8 10 11 10 9 11 12 11 9 9 10 10 10 10 10 9 8 9 9 8 6 5 6 8 9 8 7 5 5 5 5 4 3 3 5 4 3 3
3 6 7 6 8 8 6 9 9 7 9 10 9 12 11 12 12 11 11 11 11 9 7 8 9 8 8 7 6 6 8 8 7 6 5 4 4 3 3 3 4 4 3 2
4 3 5 5 7 8 8 9 8 7 6 6 6 8 12 11 12 11 10 9 9 10 10 11 10 9 8 8 7 5 6 7 6 6 5 4 3 3 2 3 3 4 3 2
2 2 4 4 6 7 7 7 7 10 8 5 8 5 11 13 13 13 11 9 9 9 8 10 11 10 9 8 7 6 4 5 5 6 7 7 5 4 4 4 4 4 4 3
2 3 4 4 5 5 3 4 5 8 7 4 7 5 6 12 13 14 12 11 10 9 9 9 11 11 10 9 7 6 6 5 4 5 6 6 5 4 4 4 5 4 4 4
2 1 1 2 2 3 2 4 3 1 3 4 7 7 5 7 12 10 10 10 10 9 8 8 9 10 9 9 7 6 7 6 5 5 5 5 6 6 6 5 4 3 3 3
2 1 1 2 3 3 5 6 4 3 3 5 8 6 5 2 5 4 3 4 4 5 5 6 8 10 10 10 8 6 7 7 6 6 6 5 6 6 6 5 4 3 2 2
3 3 3 3 3 4 7 5 2 4 6 4 4 5 3 5 8 7 4 2 2 2 3 3 5 8 10 10 9 8 8 7 7 6 6 6 6 5 4 5 4 3 3 3
3 3 2 2 1 0 4 3 2 3 1 3 5 5 4 6 7 6 4 3 3 2 2 2 3 6 9 10 9 9 9 8 7 7 7 7 6 6 6 5 4 3 3 3
1 4 3 2 0 2 1 1 1 1 1 2 6 8 6 9 7 6 6 5 4 4 3 2 2 5 7 8 8 8 8 9 8 8 7 6 7 6 6 4 4 4 4 3
2 4 4 3 3 4 3 2 2 1 2 1 1 2 4 9 8 8 7 6 5 4 3 2 2 4 6 7 7 7 7 8 8 8 8 7 7 6 5 4 4 4 4 3
1 3 3 2 0 2 3 4 4 1 2 2 1 1 4 9 8 7 6 4 4 4 3 3 4 5 6 7 6 6 7 7 7 7 7 7 7 6 5 5 5 4 4 4
0 3 4 2 1 3 4 5 5 2 0 2 1 2 4 6 5 4 3 2 1 2 3 3 4 6 6 7 7 7 7 7 7 7 7 7 7 6 5 5 5 4 4 4
3 1 1 1 1 5 5 7 7 4 3 3 4 3 3 2 2 1 1 1 2 1 1 3 5 6 7 7 7 8 7 8 8 8 7 7 6 6 6 6 5 4 4 4
2 0 1 2 2 2 3 6 9 8 7 5 4 4 3 3 3 4 4 4 4 4 3 3 5 6 8 8 8 8 8 8 8 8 7 7 7 7 6 6 5 4 3 4
1 0 1 1 1 1 3 6 8 9 9 9 9 8 4 5 5 6 6 5 5 5 5 4 5 7 8 9 9 9 9 9 8 8 8 7 7 7 6 5 5 5 4 4
1 1 1 1 2 1 5 7 8 7 5 5 7 4 5 6 7 7 6 6 6 7 6 6 5 6 8 9 10 10 9 9 9 8 8 8 8 7 7 6 6 5 4 4
1 1 1 1 1 4 1 5 3 1 0 1 3 5 6 6 7 6 5 6 7 8 8 7 5 5 5 7 9 10 10 10 9 9 9 9 8 8 7 7 6 5 4 4
1 1 1 1 3 3 3 3 2 1 2 6 5 6 8 9 7 2 8 9 8 7 7 7 6 4 3 6 9 10 10 10 9 9 9 9 9 9 8 7 7 5 4 4
1 1 2 2 2 1 3 3 3 2 3 7 7 7 8 9 5 4 11 12 10 9 7 6 6 3 1 4 8 10 10 10 10 9 9 9 9 9 9 8 6 5 5 5
3 3 3 3 3 0 4 3 2 1 1 6 7 7 8 6 5 8 11 10 9 9 7 6 5 3 1 3 7 8 8 9 8 8 8 8 8 8 8 7 6 7 6 6
2 2 2 2 4 1 6 4 4 4 5 7 7 7 7 8 9 9 9 9 9 9 7 6 4 3 2 2 5 6 6 7 8 8 8 8 8 8 7 8 7 7 7 7
2 1 1 1 2 4 6 6 6 6 6 6 7 8 8 9 10 10 10 9 8 8 7 5 4 2 1 1 3 5 5 8 9 9 8 8 8 7 8 8 9 8 7 6
2 2 1 0 3 3 4 6 7 7 7 7 7 8 9 9 10 10 10 9 8 7 6 5 4 3 2 2 3 4 6 8 9 9 8 8 8 8 8 7 7 7 7 7
1 2 1 1 3 4 3 6 8 8 8 8 8 8 9 10 11 10 10 9 8 7 6 5 4 4 4 3 4 4 6 8 8 8 8 8 8 8 7 7 7 7 7 8
1 1 1 1 4 3 5 7 8 8 8 9 10 10 9 9 11 11 10 9 8 8 7 6 5 5 4 3 4 5 6 8 8 8 8 7 7 7 6 6 6 9 9 12
Wind_Direction
183 185 203 200 210 217 191 197 199 202 189 194 208 223 215 212 224 228 224 213 211 214 191 156 149 151 156 160 163 167 167 173 167 167 172 170 174 172 165 150 145 150 162 176
173 214 218 213 215 229 219 210 205 184 178 191 203 226 226 207 216 221 224 221 210 213 191 160 153 158 164 166 172 172 171 172 172 170 166 158 150 151 150 142 132 129 128 132
195 184 185 198 203 203 213 210 193 163 175 200 195 228 233 215 216 220 223 225 217 209 190 173 167 167 165 166 172 176 173 167 163 152 136 117 110 114 141 157 144 123 120 110
203 175 164 185 206 200 205 206 188 168 163 197 192 218 222 212 213 214 214 220 224 216 195 177 173 167 168 162 151 153 159 155 152 149 152 156 162 172 173 154 139 126 115 92
152 153 164 195 213 202 196 174 174 176 187 207 192 217 242 205 206 208 204 206 214 214 202 183 174 166 160 151 151 152 154 153 149 150 157 166 165 153 127 122 133 136 125 112
99 97 177 215 237 209 185 133 122 167 211 228 207 206 256 209 193 195 194 193 200 200 194 181 166 152 144 140 145 155 158 159 153 152 151 158 152 137 133 140 144 133 125 124
95 107 221 212 161 198 185 144 132 153 194 227 200 204 240 107 119 130 149 168 176 181 180 172 164 156 150 150 157 166 163 161 157 153 147 136 126 124 136 136 129 122 120 113
143 152 183 199 194 185 196 183 151 168 183 202 167 206 241 114 92 81 74 90 118 141 153 157 157 155 156 157 161 171 171 163 157 147 132 115 107 106 104 96 94 91 91 87
147 124 148 189 312 223 190 222 314 324 187 147 184 214 205 113 116 121 119 104 95 90 103 136 150 155 154 161 168 174 167 155 148 136 122 116 111 105 102 97 92 89 87 89
107 119 141 138 313 337 308 194 158 36 144 195 190 188 190 163 155 142 129 113 92 81 77 92 124 150 151 155 162 166 159 152 143 134 128 123 114 106 106 107 106 100 93 84
111 121 137 162 202 189 184 209 227 227 288 308 169 96 49 126 132 127 117 106 96 84 90 120 129 131 135 140 152 157 151 141 138 133 127 124 118 115 117 117 111 106 101 91
127 119 131 155 73 317 265 221 215 189 279 298 354 79 67 90 93 97 101 100 96 103 102 123 134 132 138 150 157 154 144 140 140 135 133 129 121 122 125 120 109 101 98 90
340 126 125 153 231 232 247 237 238 249 307 266 214 158 116 107 116 124 125 115 80 113 142 150 154 159 162 165 166 157 149 145 138 133 132 127 130 134 133 120 110 105 103 102
332 170 155 181 158 166 195 209 213 193 186 229 225 217 184 153 149 120 48 13 353 333 205 188 180 177 173 174 172 163 157 149 144 143 143 142 143 138 127 116 111 108 109 113
336 47 87 355 20 92 195 207 207 209 214 224 251 263 289 3 16 18 9 0 344 324 286 231 201 190 182 179 176 167 161 154 151 150 149 146 134 123 118 119 118 110 106 107
356 23 117 266 193 188 249 240 227 224 229 245 266 280 323 358 11 5 357 349 329 312 295 266 224 201 191 183 177 167 163 158 154 156 155 143 135 134 136 138 134 129 123 118
165 141 165 233 141 294 255 234 224 220 221 235 250 283 1 5 360 345 340 342 327 317 309 288 251 222 202 187 176 172 166 157 159 161 155 149 148 151 153 151 144 146 146 139
195 170 179 223 162 237 163 50 46 127 321 332 339 7 12 356 327 319 360 356 336 327 317 302 277 242 210 184 170 162 157 158 163 163 159 156 156 157 155 153 154 153 146 145
249 220 235 228 239 242 133 83 53 93 64 27 21 16 7 347 321 46 29 2 337 326 319 309 295 270 212 176 161 153 155 160 166 169 167 163 161 160 160 163 160 151 145 143
241 254 264 250 262 277 77 47 6 351 120 32 26 15 1 351 339 330 352 345 338 332 328 324 320 320 142 147 143 151 161 167 177 173 165 159 159 162 166 165 158 149 149 151
188 209 223 242 246 57 23 341 334 310 81 18 17 11 1 348 317 315 327 331 332 330 330 337 340 352 43 130 142 160 168 179 172 157 152 154 157 160 159 157 155 153 154 158
192 206 204 219 227 182 12 28 49 45 23 15 6 357 343 323 316 323 327 327 331 334 338 348 350 351 24 118 151 170 178 165 149 149 151 154 155 159 160 157 160 163 165 171
73 40 352 19 83 72 52 66 59 33 11 359 346 337 330 322 321 324 324 325 327 329 332 335 333 322 323 176 175 184 175 153 149 151 156 158 160 162 164 168 171 174 179 185
82 353 321 348 111 79 82 74 40 19 356 341 336 330 325 319 319 319 318 319 322 324 323 323 319 302 264 213 203 191 165 157 158 164 166 167 170 171 174 178 180 184 189 193
42 346 318 263 57 24 67 33 7 348 338 334 331 326 321 316 314 315 315 314 315 316 315 311 296 285 274 226 206 185 168 163 169 172 173 174 178 178 183 189 194 194 199 198
146 73 358 355 32 339 317 341 339 333 332 330 323 318 317 313 310 311 309 310 311 311 310 307 297 286 273 241 213 194 179 174 177 181 181 180 182 184 186 189 202 214 211 217
Height
1474 1476 1476 1474 1475 1473 1474 1476 1479 1480 1480 1485 1489 1490 1489 1491 1493 1494 1495 1498 1501 1504 1507 1509 1512 1514 1517 1520 1522 1525 1527 1530 1533 1535 1537 1540 1542 1545 1547 1549 1550 1552 1553 1554
1475 1474 1472 1471 1473 1473 1475 1477 1478 1479 1479 1484 1488 1489 1486 1486 1489 1490 1492 1494 1497 1500 1503 1506 1509 1511 1514 1517 1519 1522 1524 1527 1530 1532 1535 1537 1540 1542 1544 1546 1547 1548 1550 1551
1472 1470 1469 1471 1473 1473 1475 1476 1477 1481 1482 1482 1486 1490 1485 1482 1484 1486 1488 1490 1493 1496 1499 1502 1505 1508 1511 1513 1516 1519 1521 1524 1527 1529 1532 1534 1537 1539 1541 1542 1544 1545 1546 1547
1470 1470 1470 1472 1472 1472 1475 1472 1473 1478 1486 1489 1487 1494 1483 1478 1480 1481 1483 1486 1489 1492 1495 1498 1501 1504 1507 1510 1513 1515 1518 1521 1523 1526 1528 1530 1533 1535 1537 1539 1540 1541 1542 1543
1471 1470 1471 1473 1471 1471 1471 1469 1473 1477 1483 1485 1484 1489 1481 1472 1476 1476 1478 1481 1485 1488 1491 1494 1497 1500 1503 1506 1509 1512 1514 1517 1520 1522 1524 1527 1529 1531 1533 1535 1536 1536 1537 1538
1472 1472 1473 1473 1472 1471 1472 1474 1476 1478 1483 1492 1483 1487 1482 1469 1468 1470 1472 1476 1481 1484 1487 1490 1493 1496 1499 1502 1505 1508 1510 1513 1516 1518 1521 1523 1525 1527 1529 1531 1532 1532 1533 1533
1474 1474 1474 1474 1474 1474 1474 1481 1490 1494 1496 1492 1476 1481 1477 1463 1462 1466 1470 1473 1477 1481 1484 1487 1489 1492 1494 1498 1501 1504 1506 1509 1511 1514 1516 1519 1521 1523 1525 1526 1527 1528 1528 1528
1476 1477 1474 1473 1473 1473 1474 1477 1485 1490 1494 1487 1475 1481 1472 1462 1463 1466 1470 1472 1476 1479 1481 1484 1486 1488 1491 1493 1496 1499 1502 1504 1507 1510 1512 1514 1517 1519 1520 1522 1523 1523 1524 1524
1472 1475 1474 1473 1473 1472 1475 1477 1476 1479 1475 1482 1481 1473 1465 1462 1465 1468 1471 1473 1476 1478 1480 1482 1484 1485 1487 1490 1492 1495 1497 1500 1503 1505 1507 1510 1512 1514 1516 1518 1518 1519 1519 1519
1467 1475 1474 1474 1474 1474 1474 1474 1479 1483 1484 1483 1476 1473 1471 1467 1467 1469 1472 1474 1476 1478 1479 1480 1482 1483 1484 1486 1488 1491 1493 1495 1498 1501 1504 1506 1508 1510 1512 1513 1514 1514 1514 1514
1466 1474 1478 1477 1476 1476 1477 1477 1476 1478 1479 1484 1481 1477 1461 1463 1466 1469 1472 1474 1476 1477 1478 1479 1480 1481 1481 1483 1485 1487 1489 1492 1494 1497 1500 1502 1504 1506 1508 1509 1509 1509 1509 1509
1466 1472 1478 1478 1476 1475 1474 1474 1476 1483 1484 1478 1483 1482 1463 1465 1467 1470 1472 1474 1475 1476 1477 1477 1478 1478 1479 1480 1481 1483 1486 1488 1491 1494 1496 1499 1501 1502 1503 1504 1504 1504 1504 1504
1467 1473 1481 1482 1482 1478 1476 1473 1474 1477 1481 1483 1485 1482 1467 1468 1469 1471 1473 1474 1475 1475 1475 1475 1475 1476 1476 1477 1479 1481 1483 1485 1488 1491 1493 1495 1497 1498 1499 1499 1500 1500 1500 1499
1468 1470 1476 1477 1473 1473 1475 1473 1474 1479 1487 1484 1480 1475 1471 1470 1470 1471 1472 1473 1474 1474 1474 1474 1474 1474 1474 1475 1476 1478 1480 1483 1485 1488 1490 1492 1493 1494 1495 1495 1495 1495 1495 1495
1470 1473 1474 1471 1469 1470 1471 1471 1472 1477 1478 1481 1475 1473 1471 1470 1471 1472 1472 1472 1473 1473 1473 1472 1472 1471 1472 1473 1474 1476 1478 1480 1483 1485 1487 1488 1489 1490 1491 1491 1491 1491 1491 1491
1471 1473 1474 1474 1470 1471 1472 1470 1470 1471 1473 1474 1474 1474 1471 1471 1471 1471 1472 1472 1472 1471 1471 1470 1469 1469 1469 1470 1471 1473 1475 1477 1480 1482 1483 1484 1485 1486 1487 1487 1487 1487 1487 1487
1472 1474 1477 1475 1470 1472 1476 1468 1468 1469 1468 1471 1473 1474 1471 1472 1472 1472 1472 1472 1471 1470 1468 1467 1466 1465 1466 1466 1467 1469 1471 1474 1476 1478 1479 1480 1481 1482 1482 1482 1482 1483 1483 1483
1472 1474 1478 1476 1477 1482 1471 1466 1465 1467 1468 1470 1471 1472 1472 1473 1472 1472 1472 1471 1469 1468 1465 1464 1462 1462 1462 1463 1464 1465 1467 1469 1472 1473 1475 1476 1477 1477 1478 1478 1478 1479 1480 1480
1471 1473 1476 1477 1476 1471 1469 1468 1468 1469 1473 1473 1473 1474 1474 1472 1470 1470 1470 1469 1468 1466 1463 1460 1459 1458 1458 1458 1460 1461 1463 1465 1467 1469 1470 1471 1472 1473 1474 1474 1475 1475 1477 1478
1472 1473 1477 1475 1477 1473 1474 1471 1469 1471 1477 1478 1477 1476 1476 1474 1474 1471 1469 1467 1465 1462 1460 1457 1455 1455 1454 1455 1456 1457 1459 1460 1462 1464 1466 1467 1468 1469 1470 1471 1471 1472 1474 1475
1474 1475 1477 1477 1476 1473 1475 1472 1471 1478 1482 1481 1479 1478 1478 1477 1476 1474 1469 1466 1463 1460 1458 1455 1453 1452 1452 1452 1453 1454 1455 1457 1459 1460 1462 1463 1464 1465 1466 1467 1468 1469 1471 1472
1472 1474 1474 1475 1476 1481 1478 1475 1479 1483 1482 1481 1480 1479 1477 1475 1473 1470 1467 1464 1461 1458 1456 1453 1451 1450 1450 1449 1450 1450 1452 1453 1455 1456 1458 1459 1460 1461 1462 1464 1465 1466 1468 1469
1475 1478 1477 1477 1481 1481 1479 1480 1482 1482 1481 1480 1479 1477 1475 1473 1470 1467 1464 1462 1459 1456 1454 1452 1450 1448 1448 1447 1447 1448 1449 1450 1451 1453 1454 1456 1457 1458 1459 1461 1462 1463 1465 1466
1478 1478 1477 1477 1478 1479 1480 1481 1481 1481 1480 1479 1477 1475 1473 1470 1467 1464 1462 1459 1456 1454 1452 1450 1448 1446 1445 1445 1445 1446 1446 1447 1448 1449 1451 1452 1453 1455 1456 1457 1459 1460 1461 1463
1480 1479 1478 1478 1479 1480 1480 1480 1480 1479 1478 1476 1474 1472 1470 1467 1464 1462 1459 1456 1454 1451 1449 1447 1446 1444 1443 1443 1443 1443 1443 1444 1445 1446 1447 1449 1450 1451 1452 1454 1455 1457 1458 1460
1480 1481 1481 1481 1482 1482 1481 1479 1478 1476 1475 1473 1470 1468 1466 1464 1461 1458 1455 1453 1450 1448 1446 1444 1443 1441 1440 1440 1439 1440 1440 1441 1442 1443 1444 1445 1446 1448 1449 1450 1452 1453 1455 1456